{"data":{"norad_id":54779,"intl_designator":"2022-175X","name":"STARLINK-5447","alt_names":[],"object_type":"PAYLOAD","status":"ACTIVE","operator":null,"country":"US","launch_date":"2022-12-17","launch_site_code":"AFETR","launch_vehicle":null,"mission":null,"orbit_class":"UNKNOWN","rcs_meters":null,"size_class":null,"mass_kg":null,"dimensions":null,"purposes":["comms"],"wikipedia_slug":null,"has_3d_model":false,"image_url":null,"decayed_at":null,"tle_current":{"epoch":"2026-05-25T04:01:29.425152Z","epoch_age_seconds":60331,"freshness":"FRESH","line1":"1 54779U 22175X   26145.16770168 -.00001476  00000+0 -74626-4 0  9991","line2":"2 54779  53.2126  45.9003 0001591  88.4380 271.6795 15.08845712191673","mean_motion":15.08845712,"eccentricity":0.0001591,"inclination_deg":53.2126,"raan_deg":45.9003,"arg_perigee_deg":88.438,"mean_anomaly_deg":271.6795,"bstar":-7.4626e-5,"rev_number":19167,"period_min":95.437193382169,"perigee_km":538.62529772819,"apogee_km":540.82656171242,"semimajor_km":6917.8629297203,"source":"CELESTRAK","updated_at":"2026-05-25T13:38:17.692368Z"}}}